sat.trackr.live / text

‹ back to catalog

ONEWEB-0383

NORAD 49309 · 2021-090AG

PAYLOAD ACTIVE UNKNOWN

§ Identity

Operator
Country
UK
Launch date
2021-10-14
Launch site
VOSTO
Launch vehicle
Mass (kg)
RCS (m²)

Purposes: comms

External: N2YO · Heavens-Above · Gunter

§ Orbital elements

Epoch: 2026-05-25T02:52:52.790016Z

Period
109.55 min
Inclination
87.8954°
Eccentricity
0.0001923
Mean motion
13.14503902 rev/d
Perigee alt
1,204.3 km
Apogee alt
1,207.2 km
Semi-major
7,583.9 km
B*
-2.7391e-4
RAAN
294.2984°
Arg perigee
92.8253°
Mean anomaly
267.3097°
Rev number
22,456

§ Raw data

ONEWEB-03831 49309U 21090AG  26145.12005544 -.00000089  00000+0 -27391-3 0  99992 49309  87.8954 294.2984 0001923  92.8253 267.3097 13.14503902224561

JSON: /api/v1/satellites/49309 · /tle

For live sub-satellite position, see the globe view (requires WebGL).

§ Visibility from observer

Set your observer location to see the next 7 days of passes ≥ 10°. The values pass through the URL so the page stays shareable.

No JS? Fill the form by hand. The geolocation button needs JavaScript.